Network for Lightning and Thunderstorms in Real Time - Real time lightning map
Regions/Countries: current only
List of Stations for "Australia / South Australia" sorted descending by Used
(Used = Number of selected signals used to compute the strike position)
StationCityCommentCountryRegionsStatusLast signalTotalValidInvolvedUsedClosestFarthest
1248RidgehavenRed E200mm onlyAustralia / South AustraliaOceania 1Running2026-05-07 05:2644983000308621003 km6214 km
2438Athelstone (IADELA729)2 x 200mm Ferrite, 200mm E-fie...Australia / South AustraliaOceania 1Running2026-05-07 05:251178866284381003 km6217 km
2175IronbankAustralia / South AustraliaOceania 1Running2026-05-07 05:25283248158221007 km4006 km
2953StrathalbynSHR/Hallett/CFS SBYN-02Australia / South AustraliaOceania 1Offline2026-05-07 04:507435716312979 km4038 km
2349Mil-LelTesting H FieldAustralia / South AustraliaOceania 1Running2026-05-07 05:265225519711111757 km2422 km
2271TaperooTestingAustralia / South AustraliaJapan 2Running2026-05-07 05:25304828218781 km7498 km
2353WhyallaMostly relying on e field ante...Australia / South AustraliaAsia 1Running2026-05-07 05:2556592649883971 km4256 km
2105Port LincolnAustralia / South AustraliaOceania 1Idle2026-05-07 04:4866660 km60 km
2353WhyallaMostly relying on e field ante...Australia / South AustraliaSouth America 1Running2026-05-07 05:2556592649660 km12342 km
2271TaperooTestingAustralia / South AustraliaAsia 1Running2026-05-07 05:25304828852963 km5029 km
2271TaperooTestingAustralia / South AustraliaOceania 1Running2026-05-07 05:253048281841047 km2645 km
2353WhyallaMostly relying on e field ante...Australia / South AustraliaAfrica 1Running2026-05-07 05:2556592649730 km11707 km
2353WhyallaMostly relying on e field ante...Australia / South AustraliaEurope 2Running2026-05-07 05:255659264915215384 km17920 km
2353WhyallaMostly relying on e field ante...Australia / South AustraliaOceania 1Running2026-05-07 05:25565926492321417 km4584 km
2353WhyallaMostly relying on e field ante...Australia / South AustraliaJapan 1Running2026-05-07 05:2556592649225402 km5651 km
2353WhyallaMostly relying on e field ante...Australia / South AustraliaEurope 1Running2026-05-07 05:2556592649223089 km3976 km
2105Port LincolnAustralia / South AustraliaEurope 3Idle2026-05-07 04:4866510 km15957 km
2105Port LincolnAustralia / South AustraliaEurope 2Idle2026-05-07 04:4866510 km15957 km
2353WhyallaMostly relying on e field ante...Australia / South AustraliaEurope 3Running2026-05-07 05:25565926499115380 km16437 km
2976AdelaideAustralia / South AustraliaOceania 1Running2026-05-07 05:1967403211053 km1849 km
1015Lyrup, South Australia300mm ferrite Hfield/800mm Efi...Australia / South AustraliaAsia 1Offline2023-10-21 08:37000024000 km0 km
1015Lyrup, South Australia300mm ferrite Hfield/800mm Efi...Australia / South AustraliaOceania 1Offline2023-10-21 08:37000024000 km0 km
1016Paringa, South Australia300mm ferrite Hfield/200mm Efi...Australia / South AustraliaOceania 1Offline2026-05-07 05:2615237618430996 km1120 km
1694Salisbury, South Australia3 x 200mm Ferrite + 300mm E. F...Australia / South AustraliaOceania 1Offline2025-02-04 06:24000024000 km0 km
2105Port LincolnAustralia / South AustraliaAfrica 1Idle2026-05-07 04:4866000 km0 km
2105Port LincolnAustralia / South AustraliaEurope 1Idle2026-05-07 04:4866000 km0 km
2105Port LincolnAustralia / South AustraliaSouth America 1Idle2026-05-07 04:4866000 km0 km
2393RidgehavenBlue Hx2x200mmAustralia / South AustraliaOceania 1Offline2025-01-16 04:28000024000 km0 km
2667Para Hills WestBack To Testing StageAustralia / South AustraliaOceania 1Bad GPS2024-09-20 04:48000024000 km0 km
Select your menu language
češtinadanskdeutschελληνικάenglishespañolsuomeksifrançaismagyaritaliano日本語latviskinederlandsenorskмакедонскиpolskiportuguêsрусскийсрпскиsvenskatürkукраїнський
If your language is not supported and if you want to adapt the menu language, then write an email to info ☺ blitzortung.org.